Wind_Gust
14 14 16 16 15 15 15 14 12 14 13 12 14 11 12 9 12 13 12 13 13 14 13 13 13 14 16 16 16 17 17 17 17 16 18 19 19 19 20 17 16 15
14 15 15 15 15 13 13 13 13 14 13 12 12 12 10 13 11 12 13 14 14 14 13 14 14 15 15 16 16 18 17 17 17 16 19 18 16 18 18 16 15 14
15 15 15 15 16 14 14 13 13 12 14 13 13 12 12 12 13 12 13 14 15 14 14 14 15 15 15 15 15 16 16 16 16 15 18 16 16 17 15 15 14 13
13 14 15 14 14 14 13 14 12 13 14 15 13 13 14 13 14 14 14 14 15 14 14 15 14 13 14 14 15 16 14 15 13 14 16 16 16 16 14 14 13 12
14 14 13 13 12 12 13 14 14 14 15 15 14 14 16 14 14 14 15 14 14 14 14 14 13 12 12 13 13 15 14 15 13 15 16 15 12 14 12 12 11 12
12 13 12 13 12 12 13 14 15 16 16 15 15 15 14 14 14 13 13 14 13 14 14 13 13 12 11 12 14 14 14 14 14 15 16 14 12 11 10 9 10 13
12 11 11 11 11 12 14 15 15 16 15 14 15 15 14 15 14 13 12 13 13 14 13 12 12 12 11 12 14 15 14 14 15 15 15 13 12 10 9 10 12 13
10 9 10 10 12 12 15 15 16 16 15 17 16 12 14 14 13 11 11 12 14 13 12 12 11 11 10 12 15 15 13 14 15 15 14 11 10 10 10 11 10 11
11 10 11 12 14 13 15 15 16 16 17 18 16 14 13 13 12 11 11 12 13 12 11 11 11 10 10 12 13 13 13 13 13 13 12 11 10 10 9 8 10 9
11 12 13 12 14 14 15 14 16 16 17 18 15 14 16 12 11 11 11 13 13 11 11 10 11 10 11 11 11 12 13 12 12 12 11 10 10 8 8 8 7 7
11 12 13 13 13 14 15 16 16 16 17 16 15 15 12 12 11 9 11 12 13 11 11 11 10 9 11 10 10 10 11 11 11 11 10 9 7 7 8 6 5 5
11 12 13 13 14 14 15 16 17 16 15 14 16 15 12 11 11 10 12 12 11 10 10 9 8 9 10 10 10 10 10 9 9 10 9 8 6 7 6 5 4 3
12 12 13 13 14 14 15 17 17 15 16 15 14 14 13 13 11 13 10 11 10 10 10 9 9 9 10 10 9 9 9 9 9 8 8 7 6 6 5 4 3 1
10 11 12 13 13 14 15 16 16 15 15 14 14 14 13 12 12 13 10 11 10 10 7 7 9 10 8 9 9 8 9 7 8 8 7 6 6 5 5 3 2 3
10 10 12 13 14 15 15 15 15 15 14 14 14 13 12 11 10 11 12 12 10 9 9 8 11 9 7 7 10 8 7 8 6 7 7 7 7 5 5 4 4 4
11 11 13 14 14 15 14 15 16 15 15 15 14 13 12 11 11 10 11 11 11 10 9 10 9 7 9 9 7 8 7 7 7 6 6 7 6 6 4 3 4 5
13 12 13 14 14 15 14 16 16 16 16 15 14 13 13 11 11 12 10 10 10 10 10 10 9 9 9 8 10 11 9 8 8 6 6 6 6 6 3 2 4 5
13 13 14 13 15 16 16 15 16 16 15 14 14 14 11 10 12 10 9 8 10 10 10 9 8 8 9 12 12 12 9 10 9 8 7 9 7 6 2 1 2 5
14 14 15 15 15 16 15 15 16 15 14 14 14 12 11 13 10 10 10 8 11 11 10 9 7 8 12 14 13 13 12 10 9 9 8 5 6 5 3 2 2 4
14 15 14 14 14 15 15 15 15 15 12 13 14 12 13 12 10 11 9 9 9 10 9 8 8 8 12 13 12 12 12 10 8 9 8 6 4 3 3 3 4 4
14 14 14 13 14 15 15 14 15 14 13 13 14 14 14 13 12 10 8 8 8 8 11 10 8 8 12 12 12 12 11 9 8 8 8 5 2 1 4 5 5 6
16 15 15 13 14 15 15 14 14 15 15 13 12 11 9 9 8 10 9 8 7 9 11 10 6 9 12 12 11 10 10 9 8 8 7 6 5 4 4 6 6 6
17 18 17 16 16 16 15 14 14 13 11 12 14 12 12 11 10 8 8 9 8 8 11 8 7 7 10 10 9 8 8 9 7 8 6 5 5 3 5 5 6 6
16 17 17 15 15 16 15 13 12 12 13 13 16 14 12 11 9 9 7 8 9 8 9 9 6 6 8 8 8 7 7 9 7 9 6 6 4 4 4 5 6 12
15 16 17 16 14 14 15 14 14 14 12 11 13 12 12 10 10 10 7 5 6 6 10 10 6 5 6 7 7 6 6 5 7 8 8 5 5 7 5 6 10 10
16 16 15 16 14 13 13 15 12 12 12 12 10 11 12 10 9 10 10 8 6 5 6 6 7 3 4 7 7 7 6 5 4 10 7 4 4 3 9 10 9 10
Wind_Speed
8 8 9 8 7 6 7 7 5 7 6 6 7 6 6 5 6 7 6 6 6 7 7 8 8 9 9 9 9 10 9 10 9 8 9 10 9 9 9 9 8 7
9 9 7 7 7 6 6 6 6 7 7 6 6 7 5 6 6 6 7 7 7 8 8 9 9 9 9 9 9 10 9 9 9 6 9 10 8 9 9 9 8 6
9 9 9 9 8 8 7 6 6 6 7 7 7 7 6 5 6 6 6 7 8 8 9 8 9 9 9 9 9 9 9 9 9 8 9 9 8 8 7 7 6 6
8 9 9 9 8 8 7 7 7 7 7 8 7 6 6 5 6 7 7 7 8 8 8 9 8 8 8 9 9 8 8 8 7 8 9 7 7 7 6 5 6 6
9 8 8 8 7 7 6 7 8 8 9 8 7 6 7 6 7 7 7 7 8 8 8 9 8 7 7 8 8 8 8 8 7 8 8 7 5 6 4 5 6 7
7 7 7 8 7 7 7 8 9 10 9 9 7 6 6 6 7 7 7 8 7 8 8 8 8 6 7 7 8 8 8 8 7 8 8 7 5 4 4 5 6 8
7 7 7 6 7 7 8 8 9 8 8 7 6 6 6 7 7 7 7 8 8 8 8 7 7 7 6 7 8 8 8 7 6 7 7 5 5 5 4 6 7 8
7 6 6 6 8 8 9 9 9 9 8 7 8 4 6 8 8 6 6 8 8 8 7 7 7 7 6 7 9 8 7 6 6 6 6 5 4 6 6 6 6 7
7 6 7 8 9 8 9 9 9 8 7 9 7 6 6 6 6 7 7 8 8 7 7 7 7 6 5 7 7 8 7 6 5 5 6 5 6 6 6 5 6 5
7 6 8 8 9 8 10 8 8 7 7 9 7 6 8 6 6 6 7 8 8 7 7 6 6 6 6 6 7 7 7 7 5 5 5 5 5 5 5 5 4 4
7 6 8 8 9 8 9 9 8 8 7 8 8 8 6 6 6 5 7 7 7 7 6 6 5 6 7 6 5 6 7 6 6 5 5 5 5 4 4 3 3 3
7 7 8 8 9 9 9 8 8 8 7 6 8 9 6 6 6 5 6 7 6 5 6 5 5 5 6 6 6 5 5 5 5 5 5 5 4 3 2 2 2 1
7 7 7 8 8 8 8 8 8 7 8 8 6 7 7 7 6 7 5 6 5 5 5 5 5 5 6 5 5 5 5 5 5 5 5 4 3 2 1 1 1 0
6 7 8 8 8 8 8 8 8 7 8 7 7 7 7 6 6 7 5 5 5 5 4 4 5 5 5 5 5 5 5 5 5 5 5 4 3 2 1 1 1 2
6 6 7 8 8 8 8 8 8 7 7 7 6 6 6 6 5 5 7 6 5 5 4 4 5 4 3 4 6 4 4 5 4 4 4 4 3 2 2 2 3 3
7 7 8 8 9 9 8 8 8 7 7 7 6 6 6 5 5 4 5 6 6 4 4 5 4 3 3 5 6 5 4 4 4 4 4 4 3 2 1 2 3 3
8 8 8 9 8 8 8 8 8 7 7 7 7 6 6 5 4 6 5 4 5 5 5 5 4 3 4 7 9 9 6 5 5 4 3 3 3 2 1 1 2 3
8 8 9 8 8 9 8 8 8 8 7 7 7 7 5 5 5 4 4 4 5 6 6 5 4 4 8 10 9 9 8 6 5 5 3 3 3 2 0 0 1 3
8 9 9 9 9 9 8 8 8 8 7 7 7 5 5 6 4 4 4 4 6 7 5 4 4 5 10 11 10 10 9 7 6 5 5 4 2 2 1 0 1 3
9 9 9 9 9 9 8 8 8 7 6 6 6 5 6 5 4 5 4 5 5 6 5 4 4 5 10 10 10 10 9 8 5 6 4 3 2 1 1 2 3 3
9 8 8 8 8 9 9 8 8 7 7 6 6 7 6 6 6 5 4 5 5 5 6 4 3 5 9 10 10 10 10 8 5 4 3 2 1 0 3 3 3 4
10 9 9 8 8 8 9 8 8 8 8 6 5 5 4 4 4 4 5 5 4 5 6 5 3 6 9 9 9 9 9 6 5 4 3 2 1 1 3 2 2 3
10 11 11 10 10 10 9 8 8 7 6 5 7 6 5 4 4 4 4 5 5 5 6 4 4 5 8 8 8 7 7 6 4 5 3 3 1 1 2 3 3 4
10 10 11 9 9 10 9 8 7 6 7 6 8 7 5 4 4 4 3 4 5 5 4 5 4 5 7 7 7 6 5 5 5 6 3 2 1 2 2 3 3 6
9 10 10 10 9 8 9 9 8 8 6 6 6 6 5 4 4 5 3 2 3 4 6 6 4 4 5 6 6 6 4 3 5 5 4 2 2 2 3 3 4 5
10 10 9 10 9 8 7 8 7 7 7 7 5 6 6 5 4 4 4 3 2 2 3 4 4 2 2 5 6 6 5 3 2 6 4 1 2 2 5 5 4 5
Wind_Direction
104 110 117 119 119 118 124 124 121 115 108 105 101 94 88 87 79 77 74 73 71 69 67 68 68 70 73 73 77 79 78 78 74 73 72 71 67 67 65 61 58 58
107 111 110 112 110 111 111 114 117 111 107 99 97 96 85 83 71 79 78 76 69 67 68 68 70 75 78 80 81 83 79 77 77 71 75 72 70 68 64 60 59 52
114 116 120 123 124 124 121 116 113 109 105 103 97 90 90 84 84 77 79 80 76 69 66 68 71 74 80 82 81 82 85 85 84 79 78 74 71 70 65 61 58 50
108 117 121 120 122 125 124 120 111 105 105 98 92 95 93 92 87 81 76 75 77 72 68 66 70 73 80 85 87 84 86 84 87 85 82 77 71 72 65 64 60 53
119 119 117 118 120 119 121 118 110 106 100 100 97 93 96 92 87 82 80 73 74 73 69 69 68 71 79 84 90 92 88 87 81 83 84 80 72 72 67 65 61 59
109 112 116 121 124 124 118 113 111 107 106 98 99 98 94 91 87 85 81 79 74 75 73 71 72 70 77 85 88 91 94 89 85 87 86 84 76 65 69 63 64 61
117 114 114 112 110 110 110 109 105 101 100 105 99 91 99 89 87 83 81 81 77 73 75 75 78 74 72 85 91 95 92 94 92 89 91 86 84 72 63 63 61 60
104 103 106 108 110 109 106 105 105 102 105 96 88 77 89 93 87 85 82 83 81 77 77 79 78 75 76 88 100 100 97 98 99 94 92 89 83 76 63 59 58 59
107 108 111 110 107 105 104 104 101 99 99 97 94 87 71 78 88 88 87 86 83 79 81 79 78 80 78 94 101 105 106 104 103 103 99 94 82 74 69 63 59 56
107 109 106 106 104 107 106 104 101 96 98 94 92 88 85 73 78 88 87 86 87 82 81 85 83 84 85 90 106 110 111 109 107 102 99 94 91 81 73 69 70 58
113 110 109 105 107 108 106 105 103 102 98 102 99 87 85 90 79 80 86 84 88 92 90 84 87 93 95 94 98 110 114 114 110 105 97 91 89 94 90 92 76 76
117 113 109 110 111 110 111 110 108 105 101 95 102 99 90 83 89 80 88 91 90 91 91 91 88 90 95 103 107 108 105 103 104 102 98 92 90 92 113 108 112 83
125 121 115 114 115 116 113 109 107 106 103 101 96 99 100 95 88 91 82 93 92 90 90 97 94 90 96 100 103 102 105 103 98 92 85 87 88 108 105 113 119 316
124 119 115 117 119 117 113 110 108 104 102 102 100 98 98 100 104 101 94 88 89 89 89 94 95 91 93 96 96 106 106 102 107 101 92 83 85 62 38 10 336 323
121 116 116 121 120 117 115 112 109 108 106 105 104 101 96 94 96 99 103 93 80 84 86 81 83 80 89 108 110 97 105 111 108 106 106 103 82 52 21 9 350 336
124 120 120 123 123 120 120 117 114 112 109 106 101 98 96 93 90 88 92 101 99 88 79 75 70 62 62 82 94 112 104 108 109 114 115 117 107 74 24 4 340 338
125 125 125 124 125 122 122 119 116 114 111 107 102 98 97 96 94 94 92 93 97 95 81 72 63 62 101 106 104 113 114 121 131 129 120 118 127 124 99 348 337 327
130 127 122 124 127 127 125 121 118 116 114 112 108 103 99 97 95 100 104 102 95 85 79 75 67 73 99 95 101 113 123 130 135 129 124 143 150 153 183 325 307 319
131 128 128 132 135 131 127 124 122 120 119 117 113 114 108 104 113 109 101 98 94 89 81 72 76 84 98 95 95 98 104 114 121 130 144 168 171 178 209 262 290 333
132 129 130 136 135 131 129 128 127 126 124 119 114 108 109 110 109 105 103 94 97 97 94 83 74 77 90 92 91 91 96 101 119 132 148 164 170 214 284 289 297 316
123 123 127 131 134 135 134 133 131 128 127 127 125 127 125 126 125 114 106 101 101 105 97 80 67 87 91 92 92 94 95 97 104 109 106 91 61 306 258 271 286 292
137 136 132 137 141 138 136 138 140 142 137 134 117 105 100 100 96 103 107 105 104 104 97 90 76 84 90 91 94 97 99 99 103 106 105 88 37 337 329 310 288 294
145 144 144 148 148 147 148 149 145 141 135 131 120 126 126 127 132 118 121 116 112 106 107 106 86 83 89 91 92 101 103 101 105 101 95 83 15 320 318 337 330 303
151 148 146 149 150 152 151 149 147 142 144 144 137 141 142 152 133 117 114 120 121 124 127 116 97 79 89 90 94 97 111 120 120 112 96 68 348 326 318 304 292 320
153 151 149 150 151 151 148 147 153 154 147 138 140 142 148 146 131 119 117 115 133 140 121 109 101 76 84 95 102 110 110 115 121 111 95 40 1 331 320 333 330 334
154 151 151 151 149 145 144 144 145 138 143 143 146 144 145 146 136 136 140 161 175 120 108 113 107 88 87 108 110 113 119 116 126 106 106 73 5 7 341 337 340 333